Sparta, TN

11:00 AM CST on February 06, 2016 (GMT -0600)
Upper Cumberland Regional

Weather History for KSRB - November, 2012

Change the Weather History Date:

Sunday, November 11, 2012

  Actual Average (KCSV) Record (KCSV)
Temperature  
Mean Temperature 55 °F 49 °F  
Max Temperature 68 °F 59 °F 74 °F (1985)
Min Temperature 42 °F 39 °F 19 °F (1957)
Degree Days  
Heating Degree Days 10    
Month to date heating degree days  
Since 1 July heating degree days  
Cooling Degree Days 0    
Month to date cooling degree days  
Year to date cooling degree days  
Growing Degree Days 5 (Base 50)    
Moisture  
Dew Point 44 °F    
Average Humidity 60    
Maximum Humidity 76    
Minimum Humidity 45    
Precipitation  
Precipitation 0.00 in 0.15 in 1.05 in (1995)
Month to date precipitation 1.55  
Year to date precipitation 46.59  
Sea Level Pressure  
Sea Level Pressure 30.24 in    
Wind  
Wind Speed 8 mph ()    
Max Wind Speed 21 mph    
Max Gust Speed 36 mph    
Visibility 10.0 miles    
Events      
T = Trace of Precipitation, MM = Missing Value Source: Averaged Metar Reports

Daily Weather History Graph

Daily Weather History Graph

Search for Another Location

Airport or City:

Trip Planner

Search our weather history database for the weather conditions in past years. The results will help you decide how hot, cold, wet, or windy it might be!

Date:

Astronomy

Nov. 11, 2012 Rise Set
Actual Time 6:15 AM CST 4:36 PM CST
Civil Twilight 5:48 AM CST 5:03 PM CST
Nautical Twilight 5:17 AM CST 5:34 PM CST
Astronomical Twilight 4:46 AM CST 6:04 PM CST
Moon 3:32 AM CST (11/11) 2:57 PM CST (11/11)
Length of Visible Light 11h 15m
Length of Day
10h 21m
Waning Crescent, 7% of the Moon is Illuminated
Nov 11
Waning Crescent
Nov 13
New
Nov 20
First Quarter
Nov 28
Full
Dec 6
Last Quarter

Hourly Weather History & Observations

Time (CST) Temp. Windchill Dew Point Humidity Pressure Visibility Wind Dir Wind Speed Gust Speed Precip Events Conditions
12:15 AM 44.6 °F 43.1 °F 37.4 °F 76% 30.27 in 10.0 mi SSE 3.5 mph - N/A   Clear
12:35 AM 48.2 °F - 37.4 °F 66% 30.26 in 10.0 mi SSE 4.6 mph - N/A   Clear
12:55 AM 50.0 °F - 37.4 °F 62% 30.26 in 10.0 mi South 4.6 mph - N/A   Clear
1:15 AM 51.8 °F - 37.4 °F 58% 30.25 in 10.0 mi South 4.6 mph - N/A   Clear
1:35 AM 48.2 °F - 37.4 °F 66% 30.25 in 10.0 mi South 5.8 mph - N/A   Clear
1:55 AM 48.2 °F - 37.4 °F 66% 30.24 in 10.0 mi South 4.6 mph - N/A   Clear
2:15 AM 50.0 °F - 37.4 °F 62% 30.24 in 10.0 mi South 5.8 mph - N/A   Clear
2:35 AM 51.8 °F - 37.4 °F 58% 30.24 in 10.0 mi South 5.8 mph - N/A   Clear
2:55 AM 50.0 °F - 37.4 °F 62% 30.24 in 10.0 mi South 5.8 mph - N/A   Clear
3:15 AM 48.2 °F - 37.4 °F 66% 30.25 in 10.0 mi SW 3.5 mph - N/A   Clear
3:35 AM 42.8 °F 41.1 °F 35.6 °F 76% 30.25 in 10.0 mi South 3.5 mph - N/A   Clear
3:55 AM 46.4 °F 43.5 °F 35.6 °F 66% 30.26 in 10.0 mi South 5.8 mph - N/A   Clear
4:15 AM 51.8 °F - 37.4 °F 58% 30.27 in 10.0 mi South 5.8 mph - N/A   Clear
4:35 AM 50.0 °F - 37.4 °F 62% 30.27 in 10.0 mi SSE 5.8 mph - N/A   Clear
4:55 AM 50.0 °F - 37.4 °F 62% 30.28 in 10.0 mi SSE 4.6 mph - N/A   Clear
5:35 AM 48.2 °F - 37.4 °F 66% 30.29 in 10.0 mi South 5.8 mph - N/A   Clear
5:55 AM 48.2 °F - 35.6 °F 62% 30.30 in 10.0 mi SSE 5.8 mph - N/A   Clear
6:15 AM 50.0 °F - 35.6 °F 58% 30.30 in 10.0 mi SSE 5.8 mph - N/A   Clear
6:35 AM 48.2 °F - 37.4 °F 66% 30.30 in 10.0 mi South 4.6 mph - N/A   Clear
6:55 AM 50.0 °F - 37.4 °F 62% 30.31 in 10.0 mi South 5.8 mph - N/A   Clear
7:35 AM 55.4 °F - 39.2 °F 54% 30.32 in 10.0 mi South 8.1 mph - N/A   Clear
7:55 AM 55.4 °F - 39.2 °F 54% 30.33 in 10.0 mi SSW 6.9 mph - N/A   Clear
8:15 AM 57.2 °F - 39.2 °F 51% 30.33 in 10.0 mi South 6.9 mph - N/A   Clear
8:35 AM 59.0 °F - 39.2 °F 48% 30.33 in 10.0 mi South 11.5 mph - N/A   Clear
8:55 AM 59.0 °F - 41.0 °F 51% 30.33 in 10.0 mi South 10.4 mph - N/A   Clear
9:15 AM 59.0 °F - 41.0 °F 51% 30.32 in 10.0 mi South 12.7 mph - N/A   Clear
9:35 AM 62.6 °F - 42.8 °F 48% 30.32 in 10.0 mi South 12.7 mph - N/A   Clear
9:55 AM 64.4 °F - 42.8 °F 45% 30.32 in 10.0 mi South 12.7 mph - N/A   Clear
10:15 AM 64.4 °F - 42.8 °F 45% 30.31 in 10.0 mi South 18.4 mph - N/A   Clear
10:35 AM 66.2 °F - 44.6 °F 46% 30.30 in 10.0 mi South 15.0 mph - N/A   Clear
10:55 AM 66.2 °F - 46.4 °F 49% 30.29 in 10.0 mi South 15.0 mph - N/A   Clear
11:35 AM 66.2 °F - 44.6 °F 46% 30.28 in 10.0 mi South 12.7 mph - N/A   Clear
12:15 PM 68.0 °F - 46.4 °F 46% 30.25 in 10.0 mi South 15.0 mph - N/A   Clear
12:35 PM 68.0 °F - 48.2 °F 49% 30.24 in 10.0 mi South 10.4 mph - N/A   Clear
12:55 PM 68.0 °F - 48.2 °F 49% 30.24 in 10.0 mi SSE 17.3 mph - N/A   Clear
1:15 PM 68.0 °F - 48.2 °F 49% 30.23 in 10.0 mi South 18.4 mph - N/A   Clear
3:15 PM 66.2 °F - 48.2 °F 52% 30.21 in 10.0 mi South 16.1 mph - N/A   Unknown
3:35 PM 64.4 °F - 48.2 °F 56% 30.21 in 10.0 mi South 18.4 mph - N/A   Clear
3:55 PM 64.4 °F - 48.2 °F 56% 30.21 in 10.0 mi South 15.0 mph - N/A   Clear
4:15 PM 64.4 °F - 48.2 °F 56% 30.21 in 10.0 mi South 12.7 mph - N/A   Clear
4:35 PM 62.6 °F - 48.2 °F 59% 30.21 in 10.0 mi South 13.8 mph - N/A   Clear
4:55 PM 62.6 °F - 48.2 °F 59% 30.21 in 10.0 mi South 12.7 mph - N/A   Clear
5:15 PM 62.6 °F - 48.2 °F 59% 30.22 in 10.0 mi South 10.4 mph - N/A   Clear
5:35 PM 60.8 °F - 48.2 °F 63% 30.22 in 10.0 mi South 9.2 mph - N/A   Clear
5:55 PM 60.8 °F - 48.2 °F 63% 30.22 in 10.0 mi South 11.5 mph - N/A   Clear
6:15 PM 60.8 °F - 48.2 °F 63% 30.22 in 10.0 mi South 11.5 mph - N/A   Clear
6:35 PM 60.8 °F - 48.2 °F 63% 30.22 in 10.0 mi South 12.7 mph - N/A   Clear
6:55 PM 60.8 °F - 48.2 °F 63% 30.21 in 10.0 mi South 13.8 mph - N/A   Clear
7:15 PM 60.8 °F - 50.0 °F 68% 30.21 in 10.0 mi South 12.7 mph - N/A   Clear
7:35 PM 60.8 °F - 50.0 °F 68% 30.21 in 10.0 mi South 15.0 mph - N/A   Clear
7:55 PM 60.8 °F - 50.0 °F 68% 30.20 in 10.0 mi South 13.8 mph - N/A   Clear
8:15 PM 60.8 °F - 50.0 °F 68% 30.20 in 10.0 mi South 12.7 mph - N/A   Clear
8:35 PM 60.8 °F - 50.0 °F 68% 30.20 in 10.0 mi South 16.1 mph - N/A   Clear
8:55 PM 60.8 °F - 51.8 °F 72% 30.19 in 10.0 mi South 11.5 mph - N/A   Clear
9:15 PM 60.8 °F - 51.8 °F 72% 30.19 in 10.0 mi South 10.4 mph - N/A   Clear
9:35 PM 60.8 °F - 50.0 °F 68% 30.18 in 10.0 mi South 12.7 mph - N/A   Clear
9:55 PM 60.8 °F - 50.0 °F 68% 30.18 in 10.0 mi South 12.7 mph - N/A   Clear
10:15 PM 60.8 °F - 50.0 °F 68% 30.18 in 10.0 mi South 11.5 mph - N/A   Clear
10:35 PM 60.8 °F - 50.0 °F 68% 30.17 in 10.0 mi South 16.1 mph - N/A   Clear
10:55 PM 60.8 °F - 51.8 °F 72% 30.15 in 10.0 mi South 15.0 mph - N/A   Clear
11:15 PM 60.8 °F - 51.8 °F 72% 30.14 in 10.0 mi South 16.1 mph - N/A   Clear
11:35 PM 62.6 °F - 51.8 °F 68% 30.15 in 10.0 mi South 15.0 mph - N/A   Clear
11:55 PM 62.6 °F - 51.8 °F 68% 30.14 in 10.0 mi South 20.7 mph 35.7 mph N/A   Clear